Regional Weather Roundup
Issued by NWS Memphis, TN

Home | Current Version | Previous Version | Text Only | Print | Product List | Glossary On
Versions: 1 2 3 4 5 6 7 8 9 10 11 12 13 14 15 16 17 18 19 20 21 22 23 24 25 26 27 28 29 30 31 32 33 34 35 36 37 38 39 40 41 42 43 44 45 46 47 48 49 50
000
ASUS44 KMEG 052300
RWRMEG
MEMPHIS CWA HOURLY WEATHER ROUNDUP
NATIONAL WEATHER SERVICE MEMPHIS TN
600 PM CDT TUE MAY 05 2015

...WEST TENNESSEE...

CITY           SKY/WX    TMP DP  RH WIND       PRES   REMARKS
MEMPHIS INTL   MOSUNNY   83  50  31 SE13      30.13S
NWS MEMPHIS      N/A     82 N/A N/A MISG        N/A
JACKSON        SUNNY     83  49  30 S8        30.14F
LEXINGTON      SUNNY     81  50  34 S6        30.16S
DYERSBURG      SUNNY     82  48  30 SE7       30.14S


...EASTERN ARKANSAS...

CITY           SKY/WX    TMP DP  RH WIND       PRES   REMARKS
JONESBORO      SUNNY     83  51  33 S14       30.09F
WEST MEMPHIS   SUNNY     82  54  37 S12       30.11S
BATESVILLE     SUNNY     82  54  36 S9        30.09F
WALNUT RIDGE   SUNNY     84  52  32 S15G21    30.09S
BLYTHEVILLE    SUNNY     84  53  34 SE13      30.11F
SEARCY         MOSUNNY   83  56  39 S10       30.09F
STUTTGART      MOSUNNY   84  52  32 S14       30.09S
PINE BLUFF     MOSUNNY   82  54  37 S14G22    30.07F
MONTICELLO     SUNNY     83  53  35 SE12      30.08S


...NORTH MISSISSIPPI...

CITY           SKY/WX    TMP DP  RH WIND       PRES   REMARKS
TUPELO         SUNNY     82  52  35 S8        30.14F
TUNICA         SUNNY     81  48  32 SE8       30.12F
GREENWOOD      MOSUNNY   82  53  36 E8        30.11F
GOLDEN TRIANGL MOSUNNY   81  55  41 SE9       30.14F


...SOUTHEAST MISSOURI...

CITY           SKY/WX    TMP DP  RH WIND       PRES   REMARKS
WEST PLAINS    SUNNY     78  54  43 S12       30.12S
POPLAR BLUFF   MOSUNNY   81  55  40 S8        30.09F
CAPE GIRARDEAU PTSUNNY   76  63  64 NE7       30.12F


...NORTHWEST ALABAMA...

CITY           SKY/WX    TMP DP  RH WIND       PRES   REMARKS
MUSCLE SHOALS  SUNNY     82  53  36 SE8       30.17F


...MIDDLE TENNESSEE...

CITY           SKY/WX    TMP DP  RH WIND       PRES   REMARKS
NASHVILLE      MOSUNNY   83  50  31 S6        30.18S
CLARKSVILLE    PTSUNNY   79  54  41 S5        30.16S


...WESTERN KENTUCKY...

CITY           SKY/WX    TMP DP  RH WIND       PRES   REMARKS
PADUCAH        MOSUNNY   83  52  34 S9        30.12F


...CENTRAL ARKANSAS...

CITY           SKY/WX    TMP DP  RH WIND       PRES   REMARKS
LITTLE ROCK    MOSUNNY   83  50  31 S10       30.07S


SKY/WX REPORTED AS FAIR MEANS FEW OR NO CLOUDS BELOW
12 THOUSAND FEET.




USA.gov is the U.S. government's official web portal to all federal, state and local government web resources and services.